EW7149 Weather Reports


Display with metric or nautical units.
time (UTC)temp
F
wind
direction
speed
MPH
gust
MPH
rain 1hr
in
rain 24hr
in
rain mn
in
humidity
%
barometer
mb
20260506171042 62 171 4.0 14.0 0.00 0.16 0.16 1 1007.4
20260506170540 62 160 3.0 11.0 0.00 0.16 0.16 1 1007.6
20260506170041 62 146 2.0 11.0 0.00 0.16 0.16 1 1007.5
20260506165537 62 157 2.0 11.0 0.00 0.16 0.16 1 1007.5
20260506165023 62 169 4.0 10.0 0.00 0.16 0.16 1 1007.4
20260506164507 62 142 4.0 10.0 0.00 0.16 0.16 1 1007.5
20260506164010 62 159 3.0 9.0 0.00 0.16 0.16 1 1007.5
20260506163510 62 157 3.0 13.0 0.00 0.16 0.16 1 1007.6
20260506162959 62 139 3.0 13.0 0.00 0.16 0.16 1 1007.5
20260506162458 61 142 3.0 13.0 0.00 0.16 0.16 1 1007.5
20260506161954 61 133 3.0 13.0 0.00 0.16 0.16 1 1007.4
20260506161449 61 160 3.0 10.0 0.00 0.16 0.16 1 1007.4
20260506160429 61 146 4.0 11.0 0.00 0.16 0.16 1 1007.6
20260506155359 61 160 4.0 17.0 0.00 0.16 0.16 1 1007.7
20260506154335 61 211 4.0 17.0 0.00 0.16 0.16 1 1007.6
20260506153840 61 188 4.0 12.0 0.00 0.16 0.16 1 1007.5
20260506153349 61 165 4.0 15.0 0.00 0.16 0.16 1 1007.3
20260506152836 61 153 4.0 15.0 0.00 0.16 0.16 1 1007.4
20260506152344 61 144 5.0 15.0 0.00 0.16 0.16 1 1007.6
20260506151828 61 171 5.0 15.0 0.00 0.16 0.16 1 1007.8
20260506151313 61 143 5.0 13.0 0.00 0.14 0.15 1 1007.7
20260506150755 61 163 4.0 11.0 0.04 0.14 0.15 1 1007.6
20260506150237 61 167 4.0 10.0 0.06 0.14 0.15 1 1007.8
20260506145240 61 170 3.0 12.0 0.17 0.13 0.15 1 1008.2
20260506144728 61 144 3.0 12.0 0.05 0.13 0.13 1 1008.3
20260506144217 61 164 4.0 12.0 0.04 0.12 0.12 1 1008.4
20260506143707 61 125 4.0 13.0 0.04 0.12 0.12 1 1008.2
20260506143156 61 133 4.0 13.0 0.04 0.10 0.10 1 1008.0
20260506142645 61 152 5.0 13.0 0.00 0.10 0.10 1 1007.9
20260506141625 61 160 2.0 9.0 0.00 0.09 0.10 1 1007.8
20260506141119 61 166 2.0 10.0 0.00 0.09 0.10 1 1008.0
20260506140623 61 244 3.0 11.0 0.05 0.09 0.10 1 1008.0
20260506140130 61 144 2.0 11.0 0.06 0.09 0.10 1 1008.0
20260506135625 61 172 1.0 13.0 0.06 0.09 0.10 1 1007.9
20260506135123 61 162 1.0 13.0 0.09 0.09 0.09 1 1008.0
20260506134609 61 142 2.0 11.0 0.10 0.08 0.09 1 1007.9
20260506134100 61 180 1.0 11.0 0.04 0.08 0.08 1 1008.2
20260506133543 60 134 1.0 9.0 0.04 0.06 0.06 1 1008.4
20260506133038 60 145 0.0 9.0 0.04 0.06 0.06 1 1008.6
20260506132543 60 158 0.0 0.0 0.04 0.06 0.06 1 1008.6
20260506132053 60 150 0.0 0.0 0.04 0.06 0.06 1 1008.4
20260506131558 60 138 0.0 6.0 0.04 0.06 0.06 1 1008.3
20260506131044 60 127 0.0 7.0 0.04 0.06 0.06 1 1008.4
20260506130538 60 180 1.0 7.0 0.04 0.04 0.05 1 1008.4
20260506130036 60 165 0.0 8.0 0.06 0.04 0.05 1 1008.4
20260506125526 60 134 0.0 6.0 0.06 0.04 0.05 1 1008.2
20260506125016 60 155 0.0 0.0 0.06 0.04 0.04 1 1008.1
20260506124501 60 136 0.0 1.0 0.08 0.04 0.04 1 1008.1
20260506123947 61 150 0.0 3.0 0.06 0.03 0.03 1 1008.2
20260506123442 61 138 0.0 4.0 0.06 0.02 0.02 1 1008.2
20260506122950 61 173 0.0 8.0 0.05 0.02 0.02 1 1008.2
20260506122447 62 128 0.0 11.0 0.05 0.01 0.01 1 1008.3
20260506121438 62 153 0.0 7.0 0.00 0.01 0.01 1 1008.4
20260506120942 63 182 0.0 2.0 0.00 0.00 0.00 1 1008.4
20260506120448 63 267 1.0 13.0 0.00 0.00 0.00 1 1008.6
20260506114435 64 150 0.0 8.0 0.00 0.00 0.00 1 1008.6
20260506113919 64 170 0.0 0.0 0.00 0.00 0.00 1 1008.5
20260506112925 64 120 0.0 7.0 0.00 0.00 0.00 1 1008.3
20260506112429 64 240 0.0 0.0 0.00 0.00 0.00 1 1008.1
20260506111939 64 186 0.0 7.0 0.00 0.00 0.00 1 1008.2
20260506111435 64 151 0.0 7.0 0.00 0.00 0.00 5 1008.1
20260506110928 64 157 0.0 6.0 0.00 0.00 0.00 7 1008.1
20260506105913 65 136 0.0 11.0 0.00 0.00 0.00 17 1007.9
20260506105421 65 144 0.0 0.0 0.00 0.00 0.00 22 1008.0
20260506104909 65 113 0.0 9.0 0.00 0.00 0.00 26 1007.7
20260506104416 65 137 0.0 8.0 0.00 0.00 0.00 27 1007.8
20260506103916 65 173 0.0 7.0 0.00 0.00 0.00 30 1007.6
20260506103359 65 157 0.0 4.0 0.00 0.00 0.00 32 1007.5
20260506102908 65 154 0.0 6.0 0.00 0.00 0.00 33 1007.5
20260506102357 65 171 0.0 11.0 0.00 0.00 0.00 35 1007.5
20260506101856 65 90 0.0 11.0 0.00 0.00 0.00 36 1007.4
20260506101346 65 149 0.0 0.0 0.00 0.00 0.00 38 1007.5
20260506100848 65 111 0.0 7.0 0.00 0.00 0.00 40 1007.4
20260506095839 66 134 0.0 14.0 0.00 0.00 0.00 43 1007.4
20260506095347 66 147 0.0 14.0 0.00 0.00 0.00 44 1007.5
20260506094844 66 155 0.0 14.0 0.00 0.00 0.00 44 1007.5
20260506094342 66 148 0.0 8.0 0.00 0.00 0.00 46 1007.5
20260506092308 66 151 0.0 10.0 0.00 0.00 0.00 49 1007.4
20260506091752 66 144 0.0 12.0 0.00 0.00 0.00 50 1007.4
20260506091254 66 150 0.0 3.0 0.00 0.00 0.00 51 1007.4
20260506090802 66 175 0.0 10.0 0.00 0.00 0.00 51 1007.5
20260506085214 67 153 0.0 11.0 0.00 0.00 0.00 53 1007.6
20260506084721 67 153 0.0 11.0 0.00 0.00 0.00 53 1007.7
20260506084215 67 146 0.0 11.0 0.00 0.00 0.00 54 1007.7
20260506083717 67 168 0.0 0.0 0.00 0.00 0.00 54 1007.8
20260506083219 67 155 0.0 15.0 0.00 0.00 0.00 54 1007.9
20260506082712 67 155 0.0 15.0 0.00 0.00 0.00 54 1007.9
20260506082223 67 171 1.0 15.0 0.00 0.00 0.00 55 1007.8
20260506081704 67 139 0.0 15.0 0.00 0.00 0.00 55 1007.7
20260506081213 67 157 0.0 15.0 0.00 0.00 0.00 55 1007.7
20260506080657 67 160 0.0 6.0 0.00 0.00 0.00 56 1007.8
20260506080202 67 155 0.0 6.0 0.00 0.00 0.00 56 1007.8
20260506073201 68 188 0.0 3.0 0.00 0.00 0.00 57 1007.7
20260506072710 68 161 0.0 10.0 0.00 0.00 0.00 57 1007.8
20260506072214 68 153 0.0 7.0 0.00 0.00 0.00 57 1007.7
20260506071658 68 149 0.0 10.0 0.00 0.00 0.00 57 1007.9
20260506070652 68 209 0.0 0.0 0.00 0.00 0.00 57 1008.0
20260506070145 69 138 0.0 6.0 0.00 0.00 0.00 57 1007.9
20260506062043 69 158 0.0 11.0 0.00 0.00 0.00 56 1008.4
20260506061037 70 167 0.0 0.0 0.00 0.00 0.00 56 1008.5
20260506060539 70 139 0.0 8.0 0.00 0.00 0.00 56 1008.5
20260506050922 70 150 1.0 16.0 0.00 0.00 0.00 53 1009.0
20260506044357 70 163 1.0 8.0 0.00 0.00 0.00 52 1009.1
20260506043904 70 142 0.0 10.0 0.00 0.00 0.00 52 1009.0
20260506043351 70 134 1.0 10.0 0.00 0.00 0.00 52 1009.0
20260506042839 70 166 2.0 10.0 0.00 0.00 0.00 52 1009.1
20260506042320 70 160 1.0 10.0 0.00 0.00 0.00 52 1009.0
20260506041826 70 145 0.0 7.0 0.00 0.00 0.00 51 1009.1
20260506041325 70 147 0.0 3.0 0.00 0.00 0.00 51 1009.0
20260506040319 70 162 0.0 9.0 0.00 0.00 0.00 50 1009.0
20260506035309 70 157 0.0 9.0 0.00 0.00 0.00 50 1009.1
20260506034305 70 153 1.0 11.0 0.00 0.00 0.00 49 1009.0
20260506033810 70 142 1.0 9.0 0.00 0.00 0.00 48 1008.9
20260506033254 70 157 1.0 12.0 0.00 0.00 0.00 48 1008.9
20260506032246 71 169 1.0 8.0 0.00 0.00 0.00 47 1009.1
20260506031731 71 148 0.0 8.0 0.00 0.00 0.00 46 1009.1
20260506031237 71 150 0.0 8.0 0.00 0.00 0.00 46 1009.0
20260506030745 71 161 0.0 8.0 0.00 0.00 0.00 45 1009.0
20260506030246 71 140 0.0 0.0 0.00 0.00 0.00 45 1009.0
20260506025732 71 197 1.0 7.0 0.00 0.00 0.00 44 1009.1
20260506025232 71 173 1.0 7.0 0.00 0.00 0.00 44 1009.0
20260506024723 71 149 0.0 10.0 0.00 0.00 0.00 43 1009.0
20260506024231 72 162 0.0 10.0 0.00 0.00 0.00 43 1009.0
20260506023719 72 151 1.0 10.0 0.00 0.00 0.00 43 1009.0
20260506023228 72 180 1.0 10.0 0.00 0.00 0.00 42 1009.1
20260506022734 72 151 0.0 0.0 0.00 0.00 0.00 42 1009.0
20260506022240 72 142 1.0 10.0 0.00 0.00 0.00 42 1009.1
20260506021732 72 148 1.0 8.0 0.00 0.00 0.00 41 1009.2
20260506021241 72 147 1.0 8.0 0.00 0.00 0.00 41 1009.2
20260506020746 72 149 1.0 7.0 0.00 0.00 0.00 41 1009.1
20260506020229 72 132 0.0 7.0 0.00 0.00 0.00 40 1009.0
20260506015720 72 165 1.0 6.0 0.00 0.00 0.00 40 1009.0
20260506015220 72 134 2.0 10.0 0.00 0.00 0.00 40 1009.0
20260506014729 72 166 2.0 9.0 0.00 0.00 0.00 39 1008.9
20260506013224 73 155 2.0 7.0 0.00 0.00 0.00 38 1008.9
20260506012718 73 149 2.0 7.0 0.00 0.00 0.00 38 1008.9
20260506011657 73 136 3.0 8.0 0.00 0.00 0.00 37 1008.8
20260506010656 73 144 0.0 8.0 0.00 0.00 0.00 37 1008.7
20260506010153 73 159 0.0 7.0 0.00 0.00 0.00 37 1008.6
20260506005645 74 150 0.0 0.0 0.00 0.00 0.00 37 1008.6
20260506005155 74 147 1.0 5.0 0.00 0.00 0.00 36 1008.5
20260506004645 74 150 1.0 9.0 0.00 0.00 0.00 36 1008.4
20260506004152 74 171 1.0 9.0 0.00 0.00 0.00 36 1008.3
20260506003635 74 158 1.0 8.0 0.00 0.00 0.00 35 1008.3
20260506003144 75 176 2.0 8.0 0.00 0.00 0.00 35 1008.1
20260506002109 75 158 2.0 8.0 0.00 0.00 0.00 34 1008.1
20260506000531 76 153 3.0 10.0 0.00 0.00 0.00 33 1008.0
20260506000028 76 153 3.0 10.0 0.00 0.00 0.00 32 1008.0
20260505235005 77 169 3.0 14.0 0.00 0.00 0.00 31 1008.0
20260505234452 77 136 3.0 14.0 0.00 0.00 0.00 31 1008.0
20260505233954 77 157 3.0 14.0 0.00 0.00 0.00 31 1007.9
20260505233450 77 172 3.0 10.0 0.00 0.00 0.00 32 1007.9
20260505232953 77 119 4.0 12.0 0.00 0.00 0.00 32 1007.8
20260505232438 78 171 4.0 12.0 0.00 0.00 0.00 32 1007.8
20260505231413 78 177 3.0 11.0 0.00 0.00 0.00 33 1007.8
20260505230910 78 159 4.0 12.0 0.00 0.00 0.00 33 1007.7
20260505225849 78 180 3.0 12.0 0.00 0.00 0.00 34 1007.7
20260505225335 78 165 4.0 12.0 0.00 0.00 0.00 33 1007.6
20260505224839 78 165 3.0 11.0 0.00 0.00 0.00 33 1007.7
20260505224332 78 130 3.0 10.0 0.00 0.00 0.00 34 1007.7
20260505223834 78 133 3.0 11.0 0.00 0.00 0.00 33 1007.9
20260505223316 79 182 3.0 11.0 0.00 0.00 0.00 33 1007.9
20260505222825 79 170 3.0 13.0 0.00 0.00 0.00 34 1007.8
20260505222325 79 141 3.0 13.0 0.00 0.00 0.00 34 1007.9
20260505221831 79 157 4.0 14.0 0.00 0.00 0.00 34 1008.1
20260505221323 79 171 5.0 14.0 0.00 0.00 0.00 33 1008.0
20260505220819 79 180 5.0 15.0 0.00 0.00 0.00 33 1008.0
20260505220329 79 117 4.0 15.0 0.00 0.00 0.00 32 1007.9
20260505215837 79 184 3.0 18.0 0.00 0.00 0.00 32 1007.9
20260505215338 80 132 4.0 18.0 0.00 0.00 0.00 32 1007.9
20260505214835 80 161 5.0 18.0 0.00 0.00 0.00 31 1007.8
20260505214318 80 140 5.0 18.0 0.00 0.00 0.00 30 1007.7
20260505213813 81 148 5.0 16.0 0.00 0.00 0.00 30 1007.8
20260505213300 81 105 5.0 22.0 0.00 0.00 0.00 29 1007.8
20260505212750 82 138 5.0 22.0 0.00 0.00 0.00 30 1007.8
20260505212255 82 132 4.0 18.0 0.00 0.00 0.00 29 1007.7
20260505211758 82 161 4.0 18.0 0.00 0.00 0.00 29 1007.7
20260505211256 83 47 4.0 14.0 0.00 0.00 0.00 29 1007.6
20260505210740 82 230 2.0 14.0 0.00 0.00 0.00 29 1007.5
20260505205231 82 190 4.0 16.0 0.00 0.00 0.00 29 1007.5
20260505204221 82 147 3.0 20.0 0.00 0.00 0.00 29 1007.5
20260505203717 82 285 4.0 20.0 0.00 0.00 0.00 31 1007.6
20260505203227 82 155 5.0 20.0 0.00 0.00 0.00 30 1007.6
20260505202714 82 175 5.0 23.0 0.00 0.00 0.00 30 1007.7
20260505202221 82 146 6.0 23.0 0.00 0.00 0.00 30 1007.7
20260505195705 82 134 1.0 16.0 0.00 0.00 0.00 30 1007.9
20260505195201 82 255 2.0 16.0 0.00 0.00 0.00 30 1008.1
20260505194710 82 95 2.0 16.0 0.00 0.00 0.00 31 1008.0
20260505193701 82 132 0.0 14.0 0.00 0.00 0.00 31 1008.0
20260505193158 82 157 0.0 9.0 0.00 0.00 0.00 33 1008.0
20260505192646 82 134 0.0 0.0 0.00 0.00 0.00 31 1008.1
20260505192149 82 155 1.0 16.0 0.00 0.00 0.00 31 1008.2
20260505191633 82 97 1.0 16.0 0.00 0.00 0.00 31 1008.2
20260505191129 82 165 1.0 18.0 0.00 0.00 0.00 31 1008.5
20260505190626 82 249 2.0 18.0 0.00 0.00 0.00 32 1008.5
20260505190128 82 175 2.0 18.0 0.00 0.00 0.00 32 1008.5
20260505185637 82 141 1.0 18.0 0.00 0.00 0.00 33 1008.6
20260505185141 82 152 1.0 14.0 0.00 0.00 0.00 33 1008.6
20260505184625 82 148 1.0 14.0 0.00 0.00 0.00 33 1008.7
20260505184120 82 155 0.0 9.0 0.00 0.00 0.00 34 1008.8
20260505183627 82 271 0.0 16.0 0.00 0.00 0.00 32 1008.9
20260505183129 82 240 0.0 16.0 0.00 0.00 0.00 33 1008.8
20260505182130 82 165 2.0 16.0 0.00 0.00 0.00 32 1008.9
20260505181622 82 137 0.0 7.0 0.00 0.00 0.00 33 1009.2
20260505181125 82 172 1.0 5.0 0.00 0.00 0.00 34 1009.2
20260505180609 82 137 0.0 18.0 0.00 0.00 0.00 32 1009.3
20260505180111 82 166 0.0 9.0 0.00 0.00 0.00 34 1009.3
20260505175557 81 177 0.0 9.0 0.00 0.00 0.00 35 1009.4
20260505175040 82 157 0.0 7.0 0.00 0.00 0.00 32 1009.3
20260505174532 82 286 0.0 0.0 0.00 0.00 0.00 36 1009.4
20260505173527 81 254 0.0 8.0 0.00 0.00 0.00 35 1009.5
20260505173029 81 118 0.0 7.0 0.00 0.00 0.00 33 1009.7
20260505172512 81 260 0.0 7.0 0.00 0.00 0.00 34 1009.7
20260505172013 81 200 0.0 0.0 0.00 0.00 0.00 37 1009.6
20260505171523 80 157 0.0 18.0 0.00 0.00 0.00 35 1009.7